This is the latest recevied weather packets stored in our database for station/object N3WMC. If no packets are shown the sender has not sent any weather packets the latest 10 day(s).
| Time | Temp. | Humidity | Pressure | Rain* | Wind** | Luminosity | Snow |
|---|---|---|---|---|---|---|---|
| 1777389027 | 13.33° C | 83% | 1015.4 hPa | 0 mm | - | 105 W/m² | - |
| 1777388724 | 13.33° C | 84% | 1015.3 hPa | 0 mm | - | 93 W/m² | - |
| 1777388420 | 13.33° C | 84% | 1015.3 hPa | 0 mm | - | 128 W/m² | - |
| 1777388120 | 13.33° C | 85% | 1015.2 hPa | 0 mm | - | 121 W/m² | - |
| 1777387816 | 13.33° C | 85% | 1015.3 hPa | 0 mm | - | 81 W/m² | - |
| 1777387513 | 12.78° C | 85% | 1015.4 hPa | 0 mm | - | 109 W/m² | - |
| 1777387209 | 12.78° C | 85% | 1015.2 hPa | 0 mm | - | 85 W/m² | - |
| 1777386904 | 12.78° C | 85% | 1015.4 hPa | 0 mm | - | 76 W/m² | - |
| 1777386601 | 12.78° C | 86% | 1015.3 hPa | 0 mm | - | 91 W/m² | - |
| 1777386298 | 12.78° C | 86% | 1015.4 hPa | 0 mm | - | 95 W/m² | - |
| 1777385995 | 12.22° C | 86% | 1015.6 hPa | 0 mm | - | 56 W/m² | - |
| 1777385692 | 12.78° C | 86% | 1015.3 hPa | 0 mm | - | 47 W/m² | - |
| 1777385389 | 12.78° C | 86% | 1015.4 hPa | 0 mm | - | 50 W/m² | - |
| 1777385086 | 12.78° C | 86% | 1015.1 hPa | 0 mm | - | 60 W/m² | - |
| 1777384782 | 12.78° C | 85% | 1015 hPa | 0 mm | - | 57 W/m² | - |
| 1777384478 | 12.78° C | 85% | 1015.3 hPa | 0 mm | - | 57 W/m² | - |
| 1777384173 | 12.78° C | 85% | 1015.3 hPa | 0 mm | - | 54 W/m² | - |
| 1777383870 | 12.22° C | 85% | 1015.4 hPa | 0 mm | - | 58 W/m² | - |
| 1777383566 | 12.22° C | 86% | 1015.4 hPa | 0 mm | - | 62 W/m² | - |
| 1777383262 | 12.22° C | 85% | 1015.3 hPa | 0 mm | - | 76 W/m² | - |
| 1777382958 | 12.22° C | 85% | 1015.5 hPa | 0 mm | - | 87 W/m² | - |
| 1777382654 | 12.22° C | 86% | 1015.4 hPa | 0 mm | - | 102 W/m² | - |
| 1777382350 | 12.22° C | 86% | 1015.4 hPa | 0 mm | - | 94 W/m² | - |
| 1777382047 | 12.22° C | 86% | 1015.4 hPa | 0 mm | - | 72 W/m² | - |
| 1777381742 | 12.22° C | 86% | 1015.3 hPa | 0 mm | - | 79 W/m² | - |
* Rain latest hour (hover to see other rain measurements)
** Current wind speed in m/s (hover to see current wind gust speed)